| time (UTC) | temp F | wind direction | speed MPH | gust MPH | rain 1hr in | rain 24hr in | rain mn in | humidity % | barometer mb |
| 20260508093001 | 54 | 229 | 0.0 | 0.0 | 0.00 | 0.00 | 0.00 | 57 | 1016.7 |
| 20260508092558 | 54 | 270 | 0.0 | 0.0 | 0.00 | 0.00 | 0.00 | 56 | 1016.8 |
| 20260508091756 | 54 | 270 | 0.0 | 0.0 | 0.00 | 0.00 | 0.00 | 56 | 1016.8 |
| 20260508091355 | 54 | 279 | 0.0 | 0.0 | 0.00 | 0.00 | 0.00 | 56 | 1016.7 |
| 20260508090953 | 54 | 279 | 0.0 | 0.0 | 0.00 | 0.00 | 0.00 | 56 | 1016.8 |
| 20260508090552 | 54 | 270 | 0.0 | 0.0 | 0.00 | 0.00 | 0.00 | 56 | 1016.9 |
| 20260508090152 | 54 | 229 | 0.0 | 0.0 | 0.00 | 0.00 | 0.00 | 56 | 1016.9 |
| 20260508085750 | 54 | 308 | 0.0 | 0.0 | 0.00 | 0.00 | 0.00 | 56 | 1016.9 |
| 20260508084546 | 55 | 270 | 0.0 | 0.0 | 0.00 | 0.00 | 0.00 | 56 | 1017.0 |
| 20260508084144 | 55 | 274 | 0.0 | 0.0 | 0.00 | 0.00 | 0.00 | 56 | 1017.0 |
| 20260508083743 | 55 | 337 | 0.0 | 0.0 | 0.00 | 0.00 | 0.00 | 56 | 1017.1 |
| 20260508083342 | 55 | 274 | 0.0 | 0.0 | 0.00 | 0.00 | 0.00 | 55 | 1017.2 |
| 20260508082941 | 55 | 283 | 0.0 | 1.0 | 0.00 | 0.00 | 0.00 | 55 | 1017.2 |
| 20260508082540 | 55 | 279 | 0.0 | 0.0 | 0.00 | 0.00 | 0.00 | 55 | 1017.3 |
| 20260508081736 | 55 | 342 | 0.0 | 1.0 | 0.00 | 0.00 | 0.00 | 55 | 1017.2 |
| 20260508080936 | 55 | 310 | 0.0 | 0.0 | 0.00 | 0.00 | 0.00 | 55 | 1017.3 |
| 20260508080134 | 56 | 292 | 0.0 | 0.0 | 0.00 | 0.00 | 0.00 | 55 | 1017.4 |
| 20260508075731 | 56 | 310 | 0.0 | 0.0 | 0.00 | 0.00 | 0.00 | 55 | 1017.5 |
| 20260508075329 | 56 | 337 | 0.0 | 0.0 | 0.00 | 0.00 | 0.00 | 55 | 1017.7 |
| 20260508074928 | 56 | 337 | 0.0 | 0.0 | 0.00 | 0.00 | 0.00 | 55 | 1017.5 |
| 20260508074527 | 57 | 182 | 0.0 | 0.0 | 0.00 | 0.00 | 0.00 | 55 | 1017.5 |
| 20260508074129 | 57 | 135 | 0.0 | 0.0 | 0.00 | 0.00 | 0.00 | 54 | 1017.5 |
| 20260508073724 | 57 | 135 | 1.0 | 1.0 | 0.00 | 0.00 | 0.00 | 54 | 1017.5 |
| 20260508073322 | 57 | 85 | 1.0 | 1.0 | 0.00 | 0.00 | 0.00 | 54 | 1017.5 |
| 20260508072921 | 57 | 45 | 0.0 | 0.0 | 0.00 | 0.00 | 0.00 | 54 | 1017.4 |
| 20260508072520 | 57 | 135 | 0.0 | 1.0 | 0.00 | 0.00 | 0.00 | 54 | 1017.5 |
| 20260508071718 | 57 | 227 | 0.0 | 2.0 | 0.00 | 0.00 | 0.00 | 54 | 1017.3 |
| 20260508071316 | 57 | 182 | 0.0 | 0.0 | 0.00 | 0.00 | 0.00 | 54 | 1017.3 |
| 20260508070914 | 57 | 182 | 0.0 | 2.0 | 0.00 | 0.00 | 0.00 | 54 | 1017.4 |
| 20260508070513 | 57 | 135 | 1.0 | 2.0 | 0.00 | 0.00 | 0.00 | 54 | 1017.4 |
| 20260508070113 | 57 | 162 | 1.0 | 2.0 | 0.00 | 0.00 | 0.00 | 54 | 1017.5 |
| 20260508065711 | 58 | 126 | 2.0 | 4.0 | 0.00 | 0.00 | 0.00 | 54 | 1017.3 |
| 20260508065310 | 58 | 135 | 2.0 | 4.0 | 0.00 | 0.00 | 0.00 | 54 | 1017.4 |
| 20260508064910 | 58 | 185 | 2.0 | 5.0 | 0.00 | 0.00 | 0.00 | 53 | 1017.3 |
| 20260508062902 | 58 | 135 | 2.0 | 3.0 | 0.00 | 0.00 | 0.00 | 53 | 1017.3 |
| 20260508062503 | 58 | 182 | 0.0 | 3.0 | 0.00 | 0.00 | 0.00 | 53 | 1017.3 |
| 20260508061658 | 58 | 231 | 1.0 | 3.0 | 0.00 | 0.00 | 0.00 | 52 | 1017.2 |
| 20260508061257 | 58 | 135 | 2.0 | 3.0 | 0.00 | 0.00 | 0.00 | 52 | 1017.1 |
| 20260508060856 | 58 | 135 | 3.0 | 3.0 | 0.00 | 0.00 | 0.00 | 52 | 1017.1 |
| 20260508060455 | 58 | 135 | 2.0 | 4.0 | 0.00 | 0.00 | 0.00 | 52 | 1017.1 |
| 20260508060053 | 58 | 135 | 3.0 | 6.0 | 0.00 | 0.00 | 0.00 | 52 | 1017.1 |
| 20260508055656 | 58 | 135 | 4.0 | 5.0 | 0.00 | 0.00 | 0.00 | 52 | 1017.0 |
| 20260508055251 | 58 | 135 | 3.0 | 6.0 | 0.00 | 0.00 | 0.00 | 52 | 1017.0 |
| 20260508054849 | 58 | 135 | 4.0 | 7.0 | 0.00 | 0.00 | 0.00 | 51 | 1017.0 |
| 20260508054449 | 58 | 135 | 4.0 | 5.0 | 0.00 | 0.00 | 0.00 | 51 | 1017.1 |
| 20260508053646 | 58 | 135 | 3.0 | 6.0 | 0.00 | 0.00 | 0.00 | 51 | 1017.1 |
| 20260508052843 | 59 | 126 | 5.0 | 6.0 | 0.00 | 0.00 | 0.00 | 51 | 1017.2 |
| 20260508052443 | 59 | 123 | 3.0 | 5.0 | 0.00 | 0.00 | 0.00 | 51 | 1017.1 |
| 20260508052040 | 59 | 123 | 3.0 | 6.0 | 0.00 | 0.00 | 0.00 | 50 | 1017.1 |
| 20260508051643 | 60 | 135 | 3.0 | 3.0 | 0.00 | 0.00 | 0.00 | 50 | 1017.1 |
| 20260508050435 | 60 | 135 | 2.0 | 3.0 | 0.00 | 0.00 | 0.00 | 50 | 1016.9 |
| 20260508045633 | 60 | 135 | 4.0 | 4.0 | 0.00 | 0.00 | 0.00 | 49 | 1017.0 |
| 20260508045231 | 61 | 135 | 2.0 | 3.0 | 0.00 | 0.00 | 0.00 | 49 | 1016.8 |
| 20260508044831 | 61 | 148 | 2.0 | 3.0 | 0.00 | 0.00 | 0.00 | 49 | 1016.8 |
| 20260508044429 | 61 | 135 | 0.0 | 3.0 | 0.00 | 0.00 | 0.00 | 49 | 1016.8 |
| 20260508043626 | 61 | 121 | 4.0 | 6.0 | 0.00 | 0.00 | 0.00 | 48 | 1016.6 |
| 20260508043225 | 61 | 135 | 4.0 | 6.0 | 0.00 | 0.00 | 0.00 | 48 | 1016.6 |
| 20260508042824 | 61 | 130 | 5.0 | 6.0 | 0.00 | 0.00 | 0.00 | 48 | 1016.6 |
| 20260508042422 | 61 | 123 | 4.0 | 6.0 | 0.00 | 0.00 | 0.00 | 48 | 1016.5 |
| 20260508041619 | 62 | 135 | 3.0 | 4.0 | 0.00 | 0.00 | 0.00 | 47 | 1016.4 |
| 20260508041219 | 62 | 110 | 3.0 | 5.0 | 0.00 | 0.00 | 0.00 | 47 | 1016.3 |
| 20260508040817 | 62 | 123 | 4.0 | 5.0 | 0.00 | 0.00 | 0.00 | 46 | 1016.3 |
| 20260508040416 | 62 | 87 | 3.0 | 4.0 | 0.00 | 0.00 | 0.00 | 46 | 1016.3 |
| 20260508035613 | 63 | 132 | 2.0 | 3.0 | 0.00 | 0.00 | 0.00 | 46 | 1016.1 |
| 20260508035212 | 63 | 128 | 3.0 | 5.0 | 0.00 | 0.00 | 0.00 | 45 | 1016.0 |
| 20260508034811 | 63 | 96 | 3.0 | 4.0 | 0.00 | 0.00 | 0.00 | 45 | 1016.0 |
| 20260508034409 | 63 | 135 | 3.0 | 4.0 | 0.00 | 0.00 | 0.00 | 45 | 1015.9 |
| 20260508034010 | 63 | 83 | 3.0 | 6.0 | 0.00 | 0.00 | 0.00 | 44 | 1015.9 |
| 20260508033205 | 64 | 126 | 5.0 | 6.0 | 0.00 | 0.00 | 0.00 | 43 | 1015.9 |
| 20260508032403 | 64 | 130 | 6.0 | 6.0 | 0.00 | 0.00 | 0.00 | 42 | 1015.7 |
| 20260508031202 | 65 | 130 | 3.0 | 6.0 | 0.00 | 0.00 | 0.00 | 41 | 1015.6 |
| 20260508030358 | 66 | 112 | 3.0 | 5.0 | 0.00 | 0.00 | 0.00 | 40 | 1015.4 |
| 20260508025955 | 67 | 112 | 4.0 | 5.0 | 0.00 | 0.00 | 0.00 | 39 | 1015.3 |
| 20260508025554 | 67 | 135 | 4.0 | 6.0 | 0.00 | 0.00 | 0.00 | 39 | 1015.4 |
| 20260508024752 | 67 | 112 | 4.0 | 5.0 | 0.00 | 0.00 | 0.00 | 38 | 1015.1 |
| 20260508024351 | 68 | 123 | 5.0 | 5.0 | 0.00 | 0.00 | 0.00 | 37 | 1015.1 |
| 20260508023146 | 69 | 135 | 4.0 | 5.0 | 0.00 | 0.00 | 0.00 | 36 | 1014.9 |
| 20260508022747 | 70 | 135 | 4.0 | 8.0 | 0.00 | 0.00 | 0.00 | 35 | 1014.8 |
| 20260508022343 | 70 | 130 | 4.0 | 5.0 | 0.00 | 0.00 | 0.00 | 35 | 1014.7 |
| 20260508020337 | 72 | 135 | 6.0 | 8.0 | 0.00 | 0.00 | 0.00 | 33 | 1014.5 |
| 20260508015936 | 73 | 123 | 5.0 | 6.0 | 0.00 | 0.00 | 0.00 | 33 | 1014.5 |
| 20260508015534 | 73 | 135 | 6.0 | 11.0 | 0.00 | 0.00 | 0.00 | 32 | 1014.5 |
| 20260508014732 | 74 | 135 | 4.0 | 8.0 | 0.00 | 0.00 | 0.00 | 32 | 1014.4 |
| 20260508013930 | 74 | 180 | 2.0 | 9.0 | 0.00 | 0.00 | 0.00 | 31 | 1014.5 |
| 20260508012725 | 75 | 135 | 8.0 | 14.0 | 0.00 | 0.00 | 0.00 | 30 | 1014.5 |
| 20260508012324 | 76 | 135 | 9.0 | 12.0 | 0.00 | 0.00 | 0.00 | 30 | 1014.5 |
| 20260508011522 | 76 | 135 | 9.0 | 9.0 | 0.00 | 0.00 | 0.00 | 29 | 1014.4 |
| 20260508010721 | 76 | 135 | 7.0 | 8.0 | 0.00 | 0.00 | 0.00 | 29 | 1014.5 |
| 20260508005916 | 76 | 135 | 9.0 | 9.0 | 0.00 | 0.00 | 0.00 | 28 | 1014.5 |
| 20260508005123 | 77 | 135 | 11.0 | 11.0 | 0.00 | 0.00 | 0.00 | 28 | 1014.5 |
| 20260508002709 | 79 | 139 | 5.0 | 9.0 | 0.00 | 0.00 | 0.00 | 28 | 1014.5 |
| 20260508002307 | 80 | 135 | 7.0 | 11.0 | 0.00 | 0.00 | 0.00 | 28 | 1014.4 |
| 20260508001904 | 81 | 130 | 8.0 | 8.0 | 0.00 | 0.00 | 0.00 | 28 | 1014.4 |
| 20260508001101 | 80 | 135 | 8.0 | 10.0 | 0.00 | 0.00 | 0.00 | 27 | 1014.5 |
| 20260508000700 | 80 | 135 | 6.0 | 10.0 | 0.00 | 0.00 | 0.00 | 27 | 1014.5 |
| 20260508000305 | 80 | 135 | 8.0 | 11.0 | 0.00 | 0.00 | 0.00 | 27 | 1014.4 |
| 20260507235456 | 79 | 123 | 7.0 | 13.0 | 0.00 | 0.00 | 0.00 | 27 | 1014.5 |
| 20260507235054 | 81 | 101 | 10.0 | 10.0 | 0.00 | 0.00 | 0.00 | 27 | 1014.4 |
| 20260507234653 | 82 | 135 | 5.0 | 9.0 | 0.00 | 0.00 | 0.00 | 27 | 1014.6 |
| 20260507234252 | 82 | 135 | 9.0 | 9.0 | 0.00 | 0.00 | 0.00 | 26 | 1014.5 |
| 20260507233851 | 82 | 87 | 7.0 | 9.0 | 0.00 | 0.00 | 0.00 | 26 | 1014.5 |
| 20260507233048 | 82 | 137 | 6.0 | 9.0 | 0.00 | 0.00 | 0.00 | 26 | 1014.6 |
| 20260507231449 | 84 | 135 | 5.0 | 9.0 | 0.00 | 0.00 | 0.00 | 26 | 1014.5 |
| 20260507231042 | 85 | 117 | 5.0 | 15.0 | 0.00 | 0.00 | 0.00 | 26 | 1014.6 |
| 20260507230640 | 86 | 135 | 14.0 | 15.0 | 0.00 | 0.00 | 0.00 | 26 | 1014.5 |
| 20260507225437 | 88 | 72 | 2.0 | 5.0 | 0.00 | 0.00 | 0.00 | 25 | 1014.6 |
| 20260507223837 | 88 | 162 | 5.0 | 7.0 | 0.00 | 0.00 | 0.00 | 25 | 1014.7 |
| 20260507223432 | 89 | 140 | 3.0 | 7.0 | 0.00 | 0.00 | 0.00 | 25 | 1014.7 |
| 20260507223029 | 88 | 182 | 2.0 | 6.0 | 0.00 | 0.00 | 0.00 | 25 | 1014.8 |
| 20260507222628 | 87 | 137 | 2.0 | 9.0 | 0.00 | 0.00 | 0.00 | 25 | 1014.7 |
| 20260507221825 | 86 | 171 | 3.0 | 9.0 | 0.00 | 0.00 | 0.00 | 25 | 1014.9 |
| 20260507221424 | 86 | 130 | 9.0 | 9.0 | 0.00 | 0.00 | 0.00 | 25 | 1014.8 |
| 20260507221022 | 86 | 144 | 6.0 | 10.0 | 0.00 | 0.00 | 0.00 | 25 | 1014.8 |
| 20260507220621 | 86 | 155 | 3.0 | 9.0 | 0.00 | 0.00 | 0.00 | 25 | 1014.9 |
| 20260507220220 | 86 | 146 | 8.0 | 9.0 | 0.00 | 0.00 | 0.00 | 25 | 1014.9 |
| 20260507215418 | 88 | 157 | 6.0 | 10.0 | 0.00 | 0.00 | 0.00 | 25 | 1015.1 |
| 20260507214618 | 89 | 174 | 3.0 | 7.0 | 0.00 | 0.00 | 0.00 | 25 | 1015.2 |
| 20260507214215 | 89 | 148 | 8.0 | 10.0 | 0.00 | 0.00 | 0.00 | 24 | 1015.1 |
| 20260507213812 | 90 | 180 | 6.0 | 7.0 | 0.00 | 0.00 | 0.00 | 24 | 1015.2 |
| 20260507213411 | 89 | 175 | 10.0 | 12.0 | 0.00 | 0.00 | 0.00 | 24 | 1015.3 |
| 20260507212608 | 89 | 162 | 4.0 | 20.0 | 0.00 | 0.00 | 0.00 | 24 | 1015.3 |
| 20260507212207 | 90 | 139 | 6.0 | 11.0 | 0.00 | 0.00 | 0.00 | 24 | 1015.4 |
| 20260507211806 | 91 | 183 | 9.0 | 11.0 | 0.00 | 0.00 | 0.00 | 24 | 1015.4 |
| 20260507211406 | 90 | 78 | 4.0 | 12.0 | 0.00 | 0.00 | 0.00 | 24 | 1015.4 |
| 20260507211014 | 90 | 180 | 9.0 | 13.0 | 0.00 | 0.00 | 0.00 | 24 | 1015.5 |
| 20260507210605 | 89 | 216 | 4.0 | 14.0 | 0.00 | 0.00 | 0.00 | 24 | 1015.5 |
| 20260507210200 | 88 | 167 | 5.0 | 16.0 | 0.00 | 0.00 | 0.00 | 25 | 1015.6 |
| 20260507204959 | 88 | 175 | 6.0 | 18.0 | 0.00 | 0.00 | 0.00 | 25 | 1015.7 |
| 20260507204556 | 88 | 195 | 7.0 | 18.0 | 0.00 | 0.00 | 0.00 | 25 | 1015.7 |
| 20260507204154 | 89 | 137 | 15.0 | 15.0 | 0.00 | 0.00 | 0.00 | 25 | 1015.8 |
| 20260507203352 | 91 | 195 | 9.0 | 12.0 | 0.00 | 0.00 | 0.00 | 25 | 1015.9 |
| 20260507202950 | 89 | 153 | 6.0 | 10.0 | 0.00 | 0.00 | 0.00 | 25 | 1015.9 |
| 20260507202551 | 89 | 162 | 2.0 | 12.0 | 0.00 | 0.00 | 0.00 | 25 | 1015.9 |
| 20260507201746 | 88 | 166 | 3.0 | 17.0 | 0.00 | 0.00 | 0.00 | 25 | 1015.9 |
| 20260507200543 | 89 | 177 | 8.0 | 8.0 | 0.00 | 0.00 | 0.00 | 25 | 1016.2 |
| 20260507195740 | 87 | 135 | 12.0 | 17.0 | 0.00 | 0.00 | 0.00 | 25 | 1016.2 |
| 20260507195341 | 87 | 170 | 4.0 | 9.0 | 0.00 | 0.00 | 0.00 | 25 | 1016.2 |
| 20260507194544 | 85 | 128 | 8.0 | 11.0 | 0.00 | 0.00 | 0.00 | 25 | 1016.3 |
| 20260507193734 | 85 | 81 | 6.0 | 15.0 | 0.00 | 0.00 | 0.00 | 25 | 1016.4 |
| 20260507193333 | 85 | 155 | 11.0 | 18.0 | 0.00 | 0.00 | 0.00 | 25 | 1016.4 |
| 20260507192931 | 85 | 121 | 4.0 | 16.0 | 0.00 | 0.00 | 0.00 | 26 | 1016.4 |
| 20260507192530 | 85 | 101 | 12.0 | 12.0 | 0.00 | 0.00 | 0.00 | 25 | 1016.5 |
| 20260507190125 | 85 | 187 | 3.0 | 20.0 | 0.00 | 0.00 | 0.00 | 25 | 1016.6 |
| 20260507185721 | 84 | 135 | 8.0 | 13.0 | 0.00 | 0.00 | 0.00 | 25 | 1016.6 |
| 20260507185324 | 83 | 117 | 4.0 | 13.0 | 0.00 | 0.00 | 0.00 | 25 | 1016.7 |
| 20260507184517 | 83 | 121 | 14.0 | 17.0 | 0.00 | 0.00 | 0.00 | 26 | 1016.7 |
| 20260507184115 | 84 | 83 | 1.0 | 15.0 | 0.00 | 0.00 | 0.00 | 26 | 1016.8 |
| 20260507183313 | 84 | 75 | 6.0 | 13.0 | 0.00 | 0.00 | 0.00 | 25 | 1016.8 |
| 20260507182912 | 82 | 135 | 12.0 | 12.0 | 0.00 | 0.00 | 0.00 | 25 | 1016.9 |
| 20260507182511 | 82 | 81 | 14.0 | 14.0 | 0.00 | 0.00 | 0.00 | 26 | 1016.8 |
| 20260507182111 | 85 | 70 | 8.0 | 10.0 | 0.00 | 0.00 | 0.00 | 26 | 1016.9 |
| 20260507175702 | 82 | 72 | 5.0 | 10.0 | 0.00 | 0.00 | 0.00 | 26 | 1016.9 |
| 20260507175301 | 81 | 67 | 9.0 | 13.0 | 0.00 | 0.00 | 0.00 | 26 | 1017.0 |
| 20260507173256 | 82 | 135 | 2.0 | 5.0 | 0.00 | 0.00 | 0.00 | 27 | 1017.0 |
| 20260507172852 | 81 | 135 | 2.0 | 12.0 | 0.00 | 0.00 | 0.00 | 28 | 1017.1 |
| 20260507172451 | 80 | 85 | 2.0 | 7.0 | 0.00 | 0.00 | 0.00 | 28 | 1017.2 |
| 20260507172053 | 80 | 63 | 2.0 | 11.0 | 0.00 | 0.00 | 0.00 | 29 | 1017.3 |
| 20260507171249 | 79 | 126 | 1.0 | 6.0 | 0.00 | 0.00 | 0.00 | 29 | 1017.2 |
| 20260507170847 | 78 | 132 | 6.0 | 8.0 | 0.00 | 0.00 | 0.00 | 30 | 1017.1 |
| 20260507165647 | 77 | 135 | 3.0 | 4.0 | 0.00 | 0.00 | 0.00 | 31 | 1017.2 |
| 20260507165241 | 76 | 119 | 3.0 | 7.0 | 0.00 | 0.00 | 0.00 | 31 | 1017.2 |
| 20260507164840 | 76 | 72 | 7.0 | 7.0 | 0.00 | 0.00 | 0.00 | 31 | 1017.2 |
| 20260507164439 | 76 | 135 | 6.0 | 8.0 | 0.00 | 0.00 | 0.00 | 32 | 1017.1 |
| 20260507164038 | 76 | 97 | 1.0 | 6.0 | 0.00 | 0.00 | 0.00 | 32 | 1017.3 |
| 20260507163635 | 76 | 50 | 4.0 | 4.0 | 0.00 | 0.00 | 0.00 | 33 | 1017.3 |
| 20260507163234 | 76 | 40 | 3.0 | 6.0 | 0.00 | 0.00 | 0.00 | 33 | 1017.3 |
| 20260507162833 | 76 | 123 | 4.0 | 6.0 | 0.00 | 0.00 | 0.00 | 34 | 1017.2 |
| 20260507162031 | 76 | 87 | 5.0 | 7.0 | 0.00 | 0.00 | 0.00 | 35 | 1017.2 |
| 20260507161629 | 76 | 130 | 6.0 | 7.0 | 0.00 | 0.00 | 0.00 | 36 | 1017.3 |
| 20260507161228 | 77 | 137 | 3.0 | 7.0 | 0.00 | 0.00 | 0.00 | 37 | 1017.2 |
| 20260507160827 | 77 | 166 | 1.0 | 7.0 | 0.00 | 0.00 | 0.00 | 37 | 1017.3 |
| 20260507160429 | 76 | 135 | 6.0 | 6.0 | 0.00 | 0.00 | 0.00 | 38 | 1017.3 |
| 20260507160025 | 76 | 51 | 1.0 | 4.0 | 0.00 | 0.00 | 0.00 | 39 | 1017.3 |
| 20260507155624 | 76 | 101 | 1.0 | 3.0 | 0.00 | 0.00 | 0.00 | 40 | 1017.3 |
| 20260507155221 | 75 | 105 | 2.0 | 4.0 | 0.00 | 0.00 | 0.00 | 40 | 1017.3 |
| 20260507154823 | 75 | 244 | 0.0 | 2.0 | 0.00 | 0.00 | 0.00 | 41 | 1017.4 |
| 20260507153617 | 73 | 83 | 1.0 | 2.0 | 0.00 | 0.00 | 0.00 | 44 | 1017.4 |
| 20260507153215 | 72 | 45 | 3.0 | 3.0 | 0.00 | 0.00 | 0.00 | 44 | 1017.6 |
| 20260507152813 | 72 | 337 | 1.0 | 3.0 | 0.00 | 0.00 | 0.00 | 45 | 1017.5 |
| 20260507152412 | 72 | 83 | 3.0 | 3.0 | 0.00 | 0.00 | 0.00 | 46 | 1017.4 |
| 20260507152011 | 72 | 85 | 0.0 | 2.0 | 0.00 | 0.00 | 0.00 | 47 | 1017.5 |
| 20260507151610 | 71 | 78 | 1.0 | 1.0 | 0.00 | 0.00 | 0.00 | 48 | 1017.5 |
| 20260507150811 | 70 | 135 | 0.0 | 1.0 | 0.00 | 0.00 | 0.00 | 50 | 1017.6 |
| 20260507150406 | 69 | 227 | 0.0 | 1.0 | 0.00 | 0.00 | 0.00 | 50 | 1017.6 |
| 20260507150006 | 68 | 36 | 0.0 | 1.0 | 0.00 | 0.00 | 0.00 | 51 | 1017.6 |
| 20260507145604 | 68 | 335 | 0.0 | 1.0 | 0.00 | 0.00 | 0.00 | 52 | 1017.5 |
| 20260507145202 | 67 | 330 | 0.0 | 0.0 | 0.00 | 0.00 | 0.00 | 52 | 1017.6 |
| 20260507144802 | 67 | 229 | 0.0 | 0.0 | 0.00 | 0.00 | 0.00 | 53 | 1017.6 |
| 20260507143958 | 65 | 180 | 0.0 | 0.0 | 0.00 | 0.00 | 0.00 | 53 | 1017.7 |
| 20260507143156 | 64 | 180 | 0.0 | 0.0 | 0.00 | 0.00 | 0.00 | 54 | 1017.6 |
| 20260507142755 | 63 | 180 | 0.0 | 0.0 | 0.00 | 0.00 | 0.00 | 55 | 1017.5 |
| 20260507142354 | 62 | 180 | 0.0 | 0.0 | 0.00 | 0.00 | 0.00 | 55 | 1017.5 |
| 20260507141550 | 59 | 45 | 0.0 | 0.0 | 0.00 | 0.00 | 0.00 | 56 | 1017.5 |
| 20260507141149 | 59 | 42 | 0.0 | 0.0 | 0.00 | 0.00 | 0.00 | 56 | 1017.4 |
| 20260507140748 | 58 | 45 | 0.0 | 0.0 | 0.00 | 0.00 | 0.00 | 56 | 1017.4 |
| 20260507135946 | 57 | 85 | 0.0 | 0.0 | 0.00 | 0.00 | 0.00 | 57 | 1017.4 |
| 20260507135545 | 56 | 135 | 0.0 | 0.0 | 0.00 | 0.00 | 0.00 | 57 | 1017.3 |
| 20260507135143 | 55 | 270 | 0.0 | 0.0 | 0.00 | 0.00 | 0.00 | 57 | 1017.3 |
| 20260507134742 | 54 | 270 | 0.0 | 0.0 | 0.00 | 0.00 | 0.00 | 57 | 1017.3 |
| 20260507134340 | 53 | 270 | 0.0 | 0.0 | 0.00 | 0.00 | 0.00 | 57 | 1017.3 |
| 20260507133940 | 52 | 274 | 0.0 | 0.0 | 0.00 | 0.00 | 0.00 | 57 | 1017.1 |
| 20260507133538 | 52 | 270 | 0.0 | 0.0 | 0.00 | 0.00 | 0.00 | 58 | 1017.1 |
| 20260507133138 | 51 | 274 | 0.0 | 0.0 | 0.00 | 0.00 | 0.00 | 57 | 1017.1 |
| 20260507132735 | 50 | 279 | 0.0 | 0.0 | 0.00 | 0.00 | 0.00 | 57 | 1017.1 |
| 20260507132334 | 50 | 233 | 0.0 | 0.0 | 0.00 | 0.00 | 0.00 | 57 | 1017.0 |
| 20260507131933 | 49 | 274 | 0.0 | 0.0 | 0.00 | 0.00 | 0.00 | 57 | 1017.2 |
| 20260507131532 | 49 | 227 | 0.0 | 0.0 | 0.00 | 0.00 | 0.00 | 57 | 1017.1 |
| 20260507131130 | 49 | 232 | 0.0 | 0.0 | 0.00 | 0.00 | 0.00 | 57 | 1017.0 |
| 20260507130729 | 49 | 270 | 0.0 | 0.0 | 0.00 | 0.00 | 0.00 | 57 | 1017.0 |
| 20260507130327 | 49 | 45 | 0.0 | 0.0 | 0.00 | 0.00 | 0.00 | 57 | 1017.0 |
| 20260507125926 | 49 | 279 | 0.0 | 0.0 | 0.00 | 0.00 | 0.00 | 57 | 1017.0 |
| 20260507125124 | 49 | 301 | 0.0 | 0.0 | 0.00 | 0.00 | 0.00 | 57 | 1017.0 |
| 20260507124723 | 49 | 315 | 0.0 | 0.0 | 0.00 | 0.00 | 0.00 | 57 | 1016.9 |
| 20260507124322 | 49 | 310 | 0.0 | 1.0 | 0.00 | 0.00 | 0.00 | 57 | 1017.0 |
| 20260507123920 | 49 | 310 | 0.0 | 0.0 | 0.00 | 0.00 | 0.00 | 57 | 1016.9 |
| 20260507123519 | 49 | 310 | 0.0 | 0.0 | 0.00 | 0.00 | 0.00 | 56 | 1016.9 |
| 20260507123117 | 49 | 310 | 0.0 | 1.0 | 0.00 | 0.00 | 0.00 | 56 | 1016.9 |
| 20260507122716 | 49 | 330 | 1.0 | 1.0 | 0.00 | 0.00 | 0.00 | 56 | 1016.8 |
| 20260507122315 | 49 | 337 | 0.0 | 0.0 | 0.00 | 0.00 | 0.00 | 56 | 1016.8 |
| 20260507121915 | 49 | 306 | 0.0 | 0.0 | 0.00 | 0.00 | 0.00 | 56 | 1016.8 |
| 20260507121113 | 49 | 42 | 0.0 | 0.0 | 0.00 | 0.00 | 0.00 | 56 | 1016.9 |
| 20260507120710 | 49 | 42 | 0.0 | 0.0 | 0.00 | 0.00 | 0.00 | 56 | 1017.0 |
| 20260507120308 | 49 | 40 | 0.0 | 0.0 | 0.00 | 0.00 | 0.00 | 56 | 1016.9 |
| 20260507115507 | 49 | 45 | 0.0 | 0.0 | 0.00 | 0.00 | 0.00 | 56 | 1016.9 |
| 20260507115104 | 49 | 42 | 0.0 | 1.0 | 0.00 | 0.00 | 0.00 | 56 | 1016.9 |
| 20260507114302 | 50 | 184 | 1.0 | 1.0 | 0.00 | 0.00 | 0.00 | 56 | 1016.9 |
| 20260507113901 | 50 | 231 | 0.0 | 0.0 | 0.00 | 0.00 | 0.00 | 56 | 1017.0 |
| 20260507113501 | 50 | 184 | 0.0 | 0.0 | 0.00 | 0.00 | 0.00 | 56 | 1017.1 |
| 20260507113101 | 50 | 232 | 0.0 | 0.0 | 0.00 | 0.00 | 0.00 | 56 | 1017.1 |
| 20260507112258 | 50 | 270 | 1.0 | 1.0 | 0.00 | 0.00 | 0.00 | 56 | 1017.0 |
| 20260507111459 | 50 | 312 | 0.0 | 0.0 | 0.00 | 0.00 | 0.00 | 56 | 1017.0 |
| 20260507111052 | 50 | 306 | 0.0 | 0.0 | 0.00 | 0.00 | 0.00 | 56 | 1017.1 |
| 20260507110655 | 50 | 270 | 0.0 | 1.0 | 0.00 | 0.00 | 0.00 | 55 | 1017.2 |
| 20260507110249 | 50 | 270 | 0.0 | 0.0 | 0.00 | 0.00 | 0.00 | 55 | 1017.2 |
| 20260507105848 | 50 | 233 | 0.0 | 0.0 | 0.00 | 0.00 | 0.00 | 55 | 1017.2 |
| 20260507105047 | 50 | 42 | 0.0 | 0.0 | 0.00 | 0.00 | 0.00 | 55 | 1017.2 |
| 20260507104644 | 50 | 45 | 0.0 | 0.0 | 0.00 | 0.00 | 0.00 | 55 | 1017.2 |
| 20260507104243 | 51 | 45 | 0.0 | 0.0 | 0.00 | 0.00 | 0.00 | 55 | 1017.2 |
| 20260507103841 | 51 | 42 | 0.0 | 0.0 | 0.00 | 0.00 | 0.00 | 55 | 1017.2 |
| 20260507102638 | 51 | 319 | 0.0 | 0.0 | 0.00 | 0.00 | 0.00 | 55 | 1017.3 |
| 20260507101835 | 51 | 292 | 0.0 | 0.0 | 0.00 | 0.00 | 0.00 | 55 | 1017.4 |
| 20260507101433 | 51 | 283 | 0.0 | 0.0 | 0.00 | 0.00 | 0.00 | 55 | 1017.4 |
| 20260507101032 | 51 | 232 | 0.0 | 0.0 | 0.00 | 0.00 | 0.00 | 55 | 1017.4 |
| 20260507100230 | 52 | 306 | 0.0 | 0.0 | 0.00 | 0.00 | 0.00 | 55 | 1017.4 |
| 20260507095829 | 52 | 274 | 0.0 | 1.0 | 0.00 | 0.00 | 0.00 | 55 | 1017.4 |
| 20260507095428 | 51 | 292 | 0.0 | 0.0 | 0.00 | 0.00 | 0.00 | 54 | 1017.5 |
| 20260507094625 | 52 | 339 | 0.0 | 0.0 | 0.00 | 0.00 | 0.00 | 54 | 1017.5 |
| 20260507094223 | 52 | 279 | 0.0 | 0.0 | 0.00 | 0.00 | 0.00 | 54 | 1017.6 |
| 20260507093822 | 52 | 274 | 0.0 | 0.0 | 0.00 | 0.00 | 0.00 | 54 | 1017.7 |